Starlink 33578

operational
NORAD ID: 63368 Int'l Des: 2025-063 Owner: SPXS Country: US Constellation: starlink
LEOCIRCULAR

关于 Starlink 33578

正在加载描述...

实时位置

正在加载3D地球...

即将过境

高度历史

Altitude vs Time

uPlot chart will show altitude changes over time

两行轨道根数

1 63368U 25063F 25258.39854539 .00111300 00000-0 27440-2 0 9995
2 63368 53.1573 147.9535 0001981 85.0379 275.0852 15.39708896 27854
Epoch: Sep 15, 2025 • Age: 18 hours

当前状态

高度 447.0 km
速度 7.65 km/s
星下点 26.82°N, 102.96°W
发射日期 Mar 26, 2025
运行时间 0.4 years
类型 internet

技术详情

分类 Payload
质量 575.00 kg
干质量 530.00 kg
总质量 575.00 kg
长度 0.30 m
直径 4.10 m
跨度 29.00 m
形状 Box + pan
制造商 SPXS
平台类型 Starlink V2MO
阶段状态 In Orbit
所有者/国家 SPXS/US

大型星座

Loading constellations...